Show Low, AZ

5:41 AM MST on September 27, 2016 (GMT -0700)
Show Low Municipal

Weather History for KSOW - November, 2012

Change the Weather History Date:

Sunday, November 18, 2012

  Actual Average Record
Temperature  
Mean Temperature 45 °F -  
Max Temperature 55 °F 52 °F 72 °F (1967)
Min Temperature 35 °F 32 °F 7 °F (1975)
Degree Days  
Heating Degree Days 20    
Moisture  
Dew Point 29 °F    
Average Humidity 57    
Maximum Humidity 81    
Minimum Humidity 29    
Precipitation  
Precipitation 0.00 in - - ()
Sea Level Pressure  
Sea Level Pressure 30.22 in    
Wind  
Wind Speed 8 mph (SSW)    
Max Wind Speed 15 mph    
Max Gust Speed 20 mph    
Visibility 10 miles    
Events      
Averages and records for this station are not official NWS values.
T = Trace of Precipitation, MM = Missing Value Source: NWS Daily Summary

Daily Weather History Graph

Daily Weather History Graph

Search for Another Location

Airport or City:

Trip Planner

Search our weather history database for the weather conditions in past years. The results will help you decide how hot, cold, wet, or windy it might be!

Date:

Astronomy

Nov. 18, 2012 Rise Set
Actual Time 6:56 AM MST 5:13 PM MST
Civil Twilight 6:29 AM MST 5:40 PM MST
Nautical Twilight 5:59 AM MST 6:11 PM MST
Astronomical Twilight 5:29 AM MST 6:41 PM MST
Moon 11:28 AM MST (11/18) 10:33 PM MST (11/18)
Length of Visible Light 11h 11m
Length of Day
10h 17m
Waxing Crescent, 31% of the Moon is Illuminated
Nov 18
Waxing Crescent
Nov 20
First Quarter
Nov 28
Full
Dec 6
Last Quarter
Dec 13
New

Hourly Weather History & Observations

Time (MST) Temp. Windchill Dew Point Humidity Pressure Visibility Wind Dir Wind Speed Gust Speed Precip Events Conditions
12:15 AM 42.8 °F 39.3 °F 32.0 °F 66% 30.20 in 10.0 mi WSW 5.8 mph - N/A   Overcast
12:35 AM 41.0 °F 36.4 °F 32.0 °F 70% 30.20 in 10.0 mi WSW 6.9 mph - N/A   Mostly Cloudy
12:55 AM 42.8 °F 38.6 °F 32.0 °F 66% 30.20 in 10.0 mi SW 6.9 mph - N/A   Scattered Clouds
1:15 AM 44.6 °F 40.7 °F 30.2 °F 57% 30.20 in 10.0 mi SW 6.9 mph - N/A   Mostly Cloudy
1:35 AM 42.8 °F 39.3 °F 30.2 °F 61% 30.20 in 10.0 mi SW 5.8 mph - N/A   Mostly Cloudy
1:55 AM 41.0 °F 36.4 °F 30.2 °F 65% 30.20 in 10.0 mi SSW 6.9 mph - N/A   Partly Cloudy
2:15 AM 41.0 °F 37.1 °F 28.4 °F 61% 30.20 in 10.0 mi SSW 5.8 mph - N/A   Clear
2:35 AM 39.2 °F 35.0 °F 28.4 °F 65% 30.19 in 10.0 mi SW 5.8 mph - N/A   Clear
2:55 AM 39.2 °F 35.0 °F 28.4 °F 65% 30.19 in 10.0 mi SW 5.8 mph - N/A   Partly Cloudy
3:15 AM 39.2 °F 35.0 °F 28.4 °F 65% 30.19 in 10.0 mi SSW 5.8 mph - N/A   Mostly Cloudy
3:35 AM 39.2 °F 34.2 °F 28.4 °F 65% 30.19 in 10.0 mi South 6.9 mph - N/A   Overcast
3:55 AM 41.0 °F 38.0 °F 28.4 °F 61% 30.19 in 10.0 mi South 4.6 mph - N/A   Mostly Cloudy
4:15 AM 39.2 °F 35.9 °F 28.4 °F 65% 30.19 in 10.0 mi South 4.6 mph - N/A   Mostly Cloudy
4:35 AM 39.2 °F 35.0 °F 28.4 °F 65% 30.19 in 10.0 mi South 5.8 mph - N/A   Mostly Cloudy
4:55 AM 37.4 °F 31.4 °F 28.4 °F 70% 30.20 in 10.0 mi South 8.1 mph - N/A   Partly Cloudy
5:15 AM 37.4 °F 31.4 °F 28.4 °F 70% 30.20 in 10.0 mi South 8.1 mph - N/A   Clear
5:35 AM 37.4 °F 32.1 °F 28.4 °F 70% 30.20 in 10.0 mi South 6.9 mph - N/A   Partly Cloudy
5:55 AM 39.2 °F 35.0 °F 30.2 °F 70% 30.21 in 10.0 mi South 5.8 mph - N/A   Mostly Cloudy
6:15 AM 39.2 °F 33.6 °F 28.4 °F 65% 30.20 in 10.0 mi South 8.1 mph - N/A   Mostly Cloudy
6:35 AM 37.4 °F 30.8 °F 28.4 °F 70% 30.20 in 10.0 mi South 9.2 mph - N/A   Clear
6:55 AM 37.4 °F 31.4 °F 30.2 °F 75% 30.21 in 10.0 mi South 8.1 mph - N/A   Partly Cloudy
7:15 AM 35.6 °F 29.2 °F 30.2 °F 81% 30.22 in 10.0 mi South 8.1 mph - N/A   Partly Cloudy
7:35 AM 37.4 °F 32.8 °F 32.0 °F 81% 30.22 in 10.0 mi South 5.8 mph - N/A   Clear
7:55 AM 41.0 °F 36.4 °F 32.0 °F 70% 30.22 in 10.0 mi SSW 6.9 mph - N/A   Clear
8:15 AM 42.8 °F 38.6 °F 32.0 °F 66% 30.23 in 10.0 mi SSW 6.9 mph - N/A   Clear
8:35 AM 42.8 °F 38.6 °F 32.0 °F 66% 30.23 in 10.0 mi South 6.9 mph - N/A   Partly Cloudy
8:55 AM 46.4 °F 42.9 °F 33.8 °F 62% 30.24 in 10.0 mi South 6.9 mph - N/A   Clear
9:15 AM 48.2 °F - 35.6 °F 62% 30.24 in 10.0 mi SSW 8.1 mph - N/A   Clear
9:35 AM 48.2 °F - 35.6 °F 62% 30.24 in 10.0 mi SSW 10.4 mph - N/A   Partly Cloudy
9:55 AM 50.0 °F - 35.6 °F 58% 30.24 in 10.0 mi SW 11.5 mph - N/A   Scattered Clouds
10:15 AM 50.0 °F - 35.6 °F 58% 30.24 in 10.0 mi SW 13.8 mph - N/A   Partly Cloudy
10:35 AM 51.8 °F - 33.8 °F 50% 30.24 in 10.0 mi South 11.5 mph 18.4 mph N/A   Clear
10:55 AM 51.8 °F - 32.0 °F 47% 30.24 in 10.0 mi SW 12.7 mph 17.3 mph N/A   Clear
11:15 AM 53.6 °F - 32.0 °F 44% 30.23 in 10.0 mi SW 12.7 mph - N/A   Clear
11:35 AM 53.6 °F - 30.2 °F 41% 30.23 in 10.0 mi SW 13.8 mph 18.4 mph N/A   Clear
11:55 AM 53.6 °F - 32.0 °F 44% 30.22 in 10.0 mi SSW 10.4 mph - N/A   Clear
12:15 PM 53.6 °F - 30.2 °F 41% 30.22 in 10.0 mi SW 13.8 mph 19.6 mph N/A   Clear
12:35 PM 55.4 °F - 28.4 °F 36% 30.21 in 10.0 mi WSW 15.0 mph 19.6 mph N/A   Clear
12:55 PM 55.4 °F - 28.4 °F 36% 30.21 in 10.0 mi SW 12.7 mph - N/A   Clear
1:15 PM 55.4 °F - 32.0 °F 41% 30.20 in 10.0 mi SW 12.7 mph - N/A   Clear
1:35 PM 55.4 °F - 32.0 °F 41% 30.20 in 10.0 mi SW 11.5 mph - N/A   Clear
1:55 PM 55.4 °F - 28.4 °F 36% 30.19 in 10.0 mi South 11.5 mph - N/A   Clear
2:15 PM 55.4 °F - 26.6 °F 33% 30.19 in 10.0 mi SSW 11.5 mph 18.4 mph N/A   Clear
2:35 PM 55.4 °F - 26.6 °F 33% 30.19 in 10.0 mi SW 13.8 mph 17.3 mph N/A   Clear
2:55 PM 55.4 °F - 26.6 °F 33% 30.20 in 10.0 mi SW 11.5 mph 17.3 mph N/A   Clear
3:15 PM 55.4 °F - 26.6 °F 33% 30.20 in 10.0 mi WSW 15.0 mph 19.6 mph N/A   Clear
3:35 PM 55.4 °F - 24.8 °F 31% 30.20 in 10.0 mi SW 11.5 mph - N/A   Clear
3:55 PM 55.4 °F - 23.0 °F 29% 30.21 in 10.0 mi SW 12.7 mph - N/A   Clear
4:15 PM 53.6 °F - 24.8 °F 33% 30.21 in 10.0 mi SW 15.0 mph - N/A   Clear
4:35 PM 53.6 °F - 24.8 °F 33% 30.21 in 10.0 mi SW 10.4 mph 16.1 mph N/A   Clear
4:55 PM 50.0 °F - 24.8 °F 37% 30.22 in 10.0 mi SW 6.9 mph - N/A   Clear
5:15 PM 48.2 °F - 24.8 °F 40% 30.23 in 10.0 mi SW 8.1 mph - N/A   Clear
5:35 PM 46.4 °F 43.5 °F 24.8 °F 43% 30.23 in 10.0 mi WSW 5.8 mph - N/A   Clear
5:55 PM 44.6 °F 41.4 °F 24.8 °F 46% 30.24 in 10.0 mi WSW 5.8 mph - N/A   Clear
6:15 PM 44.6 °F 43.1 °F 24.8 °F 46% 30.24 in 10.0 mi SSW 3.5 mph - N/A   Clear
6:35 PM 39.2 °F 35.9 °F 24.8 °F 56% 30.24 in 10.0 mi South 4.6 mph - N/A   Clear
6:55 PM 39.2 °F 35.0 °F 26.6 °F 61% 30.25 in 10.0 mi South 5.8 mph - N/A   Clear
7:15 PM 39.2 °F 34.2 °F 26.6 °F 61% 30.26 in 10.0 mi South 6.9 mph - N/A   Clear
7:35 PM 41.0 °F 36.4 °F 26.6 °F 57% 30.26 in 10.0 mi South 6.9 mph - N/A   Clear
7:55 PM 39.2 °F 34.2 °F 28.4 °F 65% 30.26 in 10.0 mi South 6.9 mph - N/A   Clear
8:15 PM 39.2 °F 34.2 °F 28.4 °F 65% 30.26 in 10.0 mi South 6.9 mph - N/A   Clear
8:35 PM 39.2 °F 34.2 °F 28.4 °F 65% 30.26 in 10.0 mi South 6.9 mph - N/A   Clear
8:55 PM 39.2 °F 34.2 °F 28.4 °F 65% 30.27 in 10.0 mi South 6.9 mph - N/A   Clear
9:15 PM 37.4 °F 31.4 °F 28.4 °F 70% 30.27 in 10.0 mi South 8.1 mph - N/A   Clear
9:35 PM 37.4 °F 31.4 °F 28.4 °F 70% 30.27 in 10.0 mi South 8.1 mph - N/A   Clear
9:55 PM 37.4 °F 30.8 °F 28.4 °F 70% 30.27 in 10.0 mi South 9.2 mph - N/A   Clear
10:15 PM 39.2 °F 33.6 °F 28.4 °F 65% 30.27 in 10.0 mi South 8.1 mph - N/A   Clear
10:35 PM 39.2 °F 32.5 °F 30.2 °F 70% 30.27 in 10.0 mi South 10.4 mph - N/A   Clear
10:55 PM 39.2 °F 32.0 °F 28.4 °F 65% 30.27 in 10.0 mi South 11.5 mph - N/A   Clear
11:15 PM 39.2 °F 32.0 °F 28.4 °F 65% 30.27 in 10.0 mi South 11.5 mph - N/A   Clear
11:35 PM 39.2 °F 33.0 °F 30.2 °F 70% 30.28 in 10.0 mi South 9.2 mph - N/A   Clear
11:55 PM 39.2 °F 32.5 °F 32.0 °F 75% 30.28 in 10.0 mi South 10.4 mph - N/A   Clear